Вернуться в каталог

STARLINK-37087

АктивенСвязьVLEO
NORAD 68250·PAYLOAD·🇺🇸 United States

Запущен Mar 17, 2026 с Vandenberg Space Force Base

Loading…

Ближайшие Пролёты (ближайшие 24 часа)

TLE

СвежийSource: CelesTrak SupGP

Эпоха: Sep 15, 2026, 03:01 UTC

1 68250C 26054U   26258.12618056  .00042552  00000+0  12573-2 0  2585
2 68250  53.1567 127.0222 0001225  83.4381 342.3749 15.34367969    19

Отслеживайте STARLINK-37087 в реальном времени с AllMySat

Download on the App Store